Flag for Germany Weather past 2 weeks in Goch, North Rhine-Westphalia, Germany

46 °F


Feels Like: 40 °F
Forecast: 44 / 53 °F
Wind: 14 mph from West

Location: Niederrhein

Current Time: Nov 28, 2015 at 2:53:15 PM

Latest Report: Nov 28, 2015 at 2:20 PM

Visibility: 10 mi

Pressure: 29.95 "Hg

Humidity: 66%

Dew point: 36 °F

Location of GochLocation

Historic Weather in Goch — Graph


Goch temperature yesterday

Maximum temperature yesterday: 45 °F (at 12:50 PM)
Minimum temperature yesterday: 34 °F (at 4:50 AM)
Average temperature yesterday: 41 °F

Past Weeks' High & Low Weather Summary

High61 °F (Nov 15, 10:20 AM)100% (Nov 25, 8:50 AM)30.27 "Hg (Nov 25, 8:50 AM)
Low32 °F (Nov 23, 6:50 AM)48% (Nov 13, 1:50 PM)29.39 "Hg (Nov 21, 4:50 AM)
Average46 °F82%29.88 "Hg
* Reported Nov 13 1:20 PM — Nov 28 1:20 PM, Goch, Weather by CustomWeather, © 2015

Note: Actual official high and low records may vary slightly from our data, if they occured in-between our weather recording intervals... More about our weather records


Goch weather history for previous 24 hours

Time TempWeatherWind HumidityBarometerVisibility
1:20 PM
Sat, Nov 28
45 °FScattered clouds.18 mph71%29.95 "HgN/A
12:50 PM46 °FSunny.17 mph66%29.92 "Hg10 mi
12:20 PM45 °FSunny.16 mph71%29.92 "Hg10 mi
11:50 AM45 °FSunny.16 mph71%29.92 "Hg10 mi
11:20 AM45 °FSunny.14 mph71%29.92 "Hg10 mi
10:50 AM43 °FSunny.14 mph81%29.92 "Hg10 mi
10:20 AM43 °FSunny.15 mph81%29.89 "Hg10 mi
9:50 AM43 °FSunny.13 mph81%29.89 "Hg10 mi
9:20 AM43 °FPassing clouds.13 mph87%29.86 "HgN/A
8:50 AM43 °FPassing clouds.12 mph81%29.86 "HgN/A
8:20 AM43 °FPassing clouds.10 mph87%29.83 "HgN/A
7:50 AM43 °FPartly cloudy.9 mph87%29.83 "HgN/A
7:20 AM43 °FPassing clouds.10 mph87%29.80 "HgN/A
6:50 AM43 °FPassing clouds.10 mph87%29.80 "HgN/A
6:20 AM43 °FSprinkles. Passing clouds.9 mph93%29.74 "HgN/A
5:50 AM45 °FSprinkles. Passing clouds.14 mph87%29.71 "Hg5 mi
5:20 AM43 °FRain. Fog.14 mph100%29.71 "Hg2 mi
4:50 AM43 °FRain showers. Passing clouds.16 mph93%29.68 "Hg5 mi
11:50 PM
Fri, Nov 27
41 °FPassing clouds.14 mph81%29.74 "HgN/A
11:20 PM41 °FPassing clouds.14 mph76%29.77 "HgN/A
10:50 PM41 °FPassing clouds.10 mph76%29.77 "HgN/A
10:20 PM41 °FPassing clouds.13 mph76%29.80 "HgN/A
9:50 PM43 °FPassing clouds.12 mph71%29.80 "HgN/A
9:20 PM43 °FPassing clouds.13 mph76%29.80 "HgN/A
8:50 PM43 °FPassing clouds.15 mph76%29.83 "HgN/A
8:20 PM45 °FPassing clouds.13 mph71%29.83 "HgN/A
7:50 PM45 °FPassing clouds.12 mph71%29.86 "HgN/A
7:20 PM45 °FPassing clouds.13 mph76%29.86 "HgN/A
6:50 PM45 °FPassing clouds.8 mph76%29.86 "HgN/A
6:20 PM45 °FPassing clouds.10 mph76%29.86 "HgN/A
5:50 PM45 °FPassing clouds.10 mph76%29.89 "HgN/A
5:20 PM45 °FPartly sunny.9 mph76%29.89 "HgN/A
4:50 PM45 °FPartly sunny.10 mph76%29.89 "HgN/A
4:20 PM45 °FPartly sunny.10 mph76%29.89 "HgN/A
3:50 PM45 °FPartly sunny.9 mph76%29.92 "HgN/A
3:20 PM45 °FPartly sunny.12 mph76%29.92 "HgN/A
2:50 PM45 °FPartly sunny.10 mph76%29.95 "HgN/A
2:20 PM45 °FPartly sunny.12 mph76%29.95 "HgN/A
Weather by CustomWeather, © 2015

See weather overviewHow to use our weather pages